Watsonville, CA

10:58 PM PDT on June 25, 2017 (GMT -0700)
Watsonville Municipal

Weather History for KWVI - September, 2014

Change the Weather History Date:

Friday, September 19, 2014

  Actual Average Record
Temperature  
Mean Temperature 71 °F 63 °F  
Max Temperature 78 °F 75 °F 94 °F (2015)
Min Temperature 63 °F 52 °F 45 °F (2004)
Degree Days  
Heating Degree Days 0    
Month to date heating degree days 7  
Since 1 July heating degree days 22  
Cooling Degree Days 6    
Month to date cooling degree days 38  
Year to date cooling degree days 238  
Growing Degree Days 20 (Base 50)    
Moisture  
Dew Point 60 °F    
Average Humidity 72    
Maximum Humidity 87    
Minimum Humidity 56    
Precipitation  
Precipitation 0.00 in - 5.90 in (1959)
Month to date precipitation 0.10  
Year to date precipitation 8.34  
Since 1 July precipitation 0.16  
Sea Level Pressure  
Sea Level Pressure 29.90 in    
Wind  
Wind Speed 5 mph (SW)    
Max Wind Speed 14 mph    
Max Gust Speed 17 mph    
Visibility 10 miles    
Events      
T = Trace of Precipitation, MM = Missing Value Source: NWS Daily Summary

Daily Weather History Graph

Daily Weather History Graph

Search for Another Location

Airport or City:

Trip Planner

Search our weather history database for the weather conditions in past years. The results will help you decide how hot, cold, wet, or windy it might be!

Date:

Astronomy

Sep. 19, 2014 Rise Set
Actual Time 6:52 AM PDT 7:08 PM PDT
Civil Twilight 6:26 AM PDT 7:34 PM PDT
Nautical Twilight 5:56 AM PDT 8:04 PM PDT
Astronomical Twilight 5:25 AM PDT 8:35 PM PDT
Moon 2:47 AM PDT (9/19) 4:36 PM PDT (9/19)
Length of Visible Light 13h 07m
Length of Day
12h 15m
Waning Crescent, 17% of the Moon is Illuminated
Sep 19
Waning Crescent
Sep 23
New
Oct 1
First Quarter
Oct 8
Full
Oct 15
Last Quarter

Hourly Weather History & Observations

Time (PDT) Temp. Dew Point Humidity Pressure Visibility Wind Dir Wind Speed Gust Speed Precip Events Conditions
12:53 AM 66.0 °F 62.1 °F 87% 29.90 in 10.0 mi Calm Calm - N/A   Overcast
1:53 AM 66.0 °F 61.0 °F 84% 29.90 in 10.0 mi Calm Calm - N/A   Overcast
2:53 AM 66.0 °F 61.0 °F 84% 29.91 in 10.0 mi WNW 3.5 mph - N/A   Overcast
3:53 AM 66.0 °F 60.1 °F 81% 29.91 in 10.0 mi WNW 3.5 mph - N/A   Overcast
4:17 AM 66.0 °F 60.1 °F 81% 29.91 in 10.0 mi Calm Calm - N/A   Overcast
4:53 AM 64.9 °F 60.1 °F 84% 29.90 in 10.0 mi Calm Calm - N/A   Overcast
5:19 AM 64.9 °F 60.1 °F 84% 29.90 in 10.0 mi Calm Calm - N/A   Scattered Clouds
5:26 AM 64.9 °F 60.1 °F 84% 29.90 in 10.0 mi Calm Calm - N/A   Mostly Cloudy
5:53 AM 64.9 °F 60.1 °F 84% 29.90 in 10.0 mi NNW 3.5 mph - N/A   Overcast
7:05 AM 64.0 °F 59.0 °F 84% 29.92 in 10.0 mi Calm Calm - N/A   Overcast
7:53 AM 66.0 °F 60.1 °F 81% 29.92 in 10.0 mi Calm Calm - N/A   Scattered Clouds
8:13 AM 66.9 °F 60.1 °F 79% 29.93 in 10.0 mi North 3.5 mph - N/A   Mostly Cloudy
8:41 AM 68.0 °F 60.1 °F 76% 29.93 in 10.0 mi NNW 3.5 mph - N/A   Partly Cloudy
8:53 AM 68.0 °F 60.1 °F 76% 29.93 in 10.0 mi Calm Calm - N/A   Clear
9:53 AM 71.1 °F 60.1 °F 68% 29.92 in 10.0 mi SSE 3.5 mph - N/A   Scattered Clouds
10:53 AM 75.9 °F 60.1 °F 58% 29.91 in 10.0 mi Variable 3.5 mph - N/A   Clear
11:53 AM 77.0 °F 60.1 °F 56% 29.91 in 10.0 mi SW 8.1 mph - N/A   Clear
12:53 PM 75.9 °F 60.1 °F 58% 29.90 in 10.0 mi WSW 10.4 mph - N/A   Clear
1:53 PM 75.0 °F 60.1 °F 60% 29.89 in 10.0 mi WSW 10.4 mph - N/A   Clear
2:53 PM 73.0 °F 60.1 °F 64% 29.88 in 10.0 mi WSW 9.2 mph - N/A   Clear
3:53 PM 71.1 °F 61.0 °F 70% 29.88 in 10.0 mi WSW 10.4 mph - N/A   Clear
4:16 PM 69.1 °F 61.0 °F 75% 29.88 in 10.0 mi SSW 9.2 mph - N/A   Mostly Cloudy
4:53 PM 70.0 °F 61.0 °F 73% 29.88 in 10.0 mi SSW 6.9 mph - N/A   Mostly Cloudy
5:22 PM 69.1 °F 61.0 °F 75% 29.88 in 10.0 mi SSW 9.2 mph - N/A   Scattered Clouds
5:53 PM 69.1 °F 61.0 °F 75% 29.87 in 10.0 mi South 6.9 mph - N/A   Clear
6:20 PM 66.9 °F 61.0 °F 81% 29.88 in 10.0 mi South 8.1 mph - N/A   Partly Cloudy
7:34 PM 64.9 °F 61.0 °F 87% 29.89 in 10.0 mi Variable 3.5 mph - N/A   Overcast
7:53 PM 64.0 °F 61.0 °F 90% 29.90 in 10.0 mi South 3.5 mph - N/A   Overcast
8:20 PM 64.9 °F 61.0 °F 87% 29.90 in 10.0 mi Calm Calm - N/A   Overcast
8:53 PM 64.0 °F 61.0 °F 90% 29.91 in 9.0 mi SSE 4.6 mph - N/A   Overcast
9:53 PM 64.0 °F 61.0 °F 90% 29.92 in 7.0 mi South 5.8 mph - N/A   Overcast
10:53 PM 64.0 °F 60.1 °F 87% 29.92 in 10.0 mi Calm Calm - N/A   Overcast
11:53 PM 64.0 °F 60.1 °F 87% 29.91 in 10.0 mi SE 4.6 mph - N/A   Overcast